Back to catalog

STARLINK-33774

AliveCommunicationsVLEO
NORAD 63721·PAYLOAD·🇺🇸 United States

Launched Apr 28, 2025 from Vandenberg Space Force Base

Loading…

Next Passes (next 24 hours)

TLE

FreshSource: CelesTrak SupGP

Epoch: Sep 14, 2026, 15:07 UTC

1 63721C 25087AA  26257.63034722 -.00041781  00000+0 -13435-2 0  2577
2 63721  53.1584  60.6158 0001021  89.6308 357.1979 15.31725641    18

Track STARLINK-33774 in real time with AllMySat

Download on the App Store